Location: Laas
(43.4693°N, 0.3073°E)
Time: 14:29:51
(UTC+00:00)

BREEZE-M TANK - Pass Details

Date: 25 October 2020
Orbit: 546 x 24740 km, 45.2° (Epoch: 21 November)

Event Time Altitude Azimuth Distance (km) Brightness Sun altitude
Rises 18:56:46 0° 281° (WNW) 5,660 8.9 -21.9°
Reaches altitude 10° 19:01:41 10° 283° (WNW) 3,295 7.4 -22.8°
Maximum altitude 19:07:41 84° 11° (NNE) 650 2.5 -23.9°
Enters shadow 19:07:48 82° 57° (ENE) 646 2.4 -23.9°
